Regional Weather Roundup
Issued by NWS Glasgow, MT

Home | Current Version | Previous Version | Text Only | Print | Product List | Glossary On
Versions: 1 2 3 4 5 6 7 8 9 10 11 12 13 14 15 16 17 18 19 20 21 22 23 24 25 26 27
000
ASUS45 KGGW 280215
RWRGGW
HOURLY REGIONAL WEATHER ROUNDUP FOR NORTHEAST MONTANA
NATIONAL WEATHER SERVICE GLASGOW MONTANA
800 PM MDT FRI MAY 27 2016

NOTE: "FAIR" INDICATES FEW OR NO CLOUDS BELOW 12,000 FEET WITH NO
SIGNIFICANT WEATHER AND/OR OBSTRUCTIONS TO VISISBILITY.

NORTHEAST MONTANA


CITY           SKY/WX    TMP DP  RH WIND       PRES   REMARKS
GLASGOW        PTCLDY    63  49  60 E17       29.81R
PLENTYWOOD       N/A     61  51  70 E17         N/A
WOLF POINT     CLOUDY    67  48  50 E9        29.82R
JORDAN           N/A     63  46  54 S7        29.81R
WINNETT          N/A     61  45  55 NE3         N/A
SIDNEY         CLOUDY    64  50  59 NE10      29.82S
GLENDIVE       CLEAR     63  50  63 NE10      29.84R
SCOBEY           N/A     62  45  53 E8        29.86R

FORT PECK REPORTS


CITY           SKY/WX    TMP DP  RH WIND       PRES   REMARKS
FORT PECK        N/A     66  51  58 E5G20       N/A
THE PINES        N/A     66  50  56 NE8         N/A

SOUTHEAST MONTANA


CITY           SKY/WX    TMP DP  RH WIND       PRES   REMARKS
BILLINGS       CLOUDY    54  48  80 E7        29.87R
MILES CITY     PTCLDY    65  49  56 NE3       29.81R
BAKER          LGT RAIN  59  48  67 SE13      29.83R
LIVINGSTON     LGT RAIN  49  43  80 W10       29.92R

CENTRAL MONTANA


CITY           SKY/WX    TMP DP  RH WIND       PRES   REMARKS
HAVRE          CLOUDY    57  51  80 S14       29.83R
LEWISTOWN      RAIN      50  46  86 W15       29.90R FOG
GREAT FALLS    CLOUDY    57  36  45 NW5       29.89R
CUT BANK       MOSUNNY   56  35  45 W13       29.88R
HELENA         CLOUDY    56  38  50 SW9       29.90S
BUTTE          LGT RAIN  45  39  79 W9        29.98R
BOZEMAN        LGT RAIN  50  45  83 W5        29.95R

WESTERN MONTANA


CITY           SKY/WX    TMP DP  RH WIND       PRES   REMARKS
MISSOULA       PTSUNNY   57  34  41 NW14      29.97R
KALISPELL      NOT AVBL

NORTH DAKOTA


CITY           SKY/WX    TMP DP  RH WIND       PRES   REMARKS
WILLISTON      CLOUDY    61  52  72 E8        29.84S
DICKINSON      PTCLDY    61  44  53 E5        29.80R
MINOT          PTCLDY    62  55  77 NE10      29.82R
BISMARCK       MOCLDY    65  51  60 E6        29.80R

SOUTHERN SASKATCHEWAN


CITY           SKY/WX    TMP DP  RH WIND       PRES   REMARKS
REGINA         MOCLDY    63  50  63 E9G20     29.88R
MOOSE JAW      MOCLDY    63  55  77 SE5       29.89R
ESTEVAN        MOCLDY    57  55  94 E8        29.86S
SWIFT CURRENT  MOCLDY    61  48  63 S17G26    29.84S





USA.gov is the U.S. government's official web portal to all federal, state and local government web resources and services.